Temp
-6 -7 -7 -8 -8 -8 -8 -8 -8 -8 -8 -8 -7 -8 -8 -8 -8 -8 -8 -8 -7 -8 -8 -9 -9 -8 -9 -9 -10 -10 -10 -10 -9 -10 -10 -10 -10 -10 -10 -10 -10 -10 -11 -11 -11 -11 -11 -11 -11
-6 -7 -7 -8 -8 -8 -8 -8 -8 -8 -8 -8 -7 -7 -7 -8 -7 -7 -8 -7 -7 -8 -9 -9 -9 -9 -9 -9 -9 -9 -10 -10 -9 -9 -9 -9 -10 -10 -10 -10 -10 -10 -10 -11 -11 -11 -11 -11 -11
-6 -7 -7 -8 -8 -8 -7 -8 -8 -8 -8 -8 -7 -7 -7 -7 -7 -7 -7 -7 -7 -8 -8 -8 -9 -9 -9 -9 -9 -9 -9 -10 -9 -9 -9 -10 -9 -10 -10 -10 -10 -10 -10 -10 -11 -11 -11 -11 -11
-6 -7 -8 -8 -9 -8 -8 -9 -8 -8 -8 -8 -7 -7 -7 -7 -7 -7 -7 -7 -7 -8 -8 -8 -9 -9 -9 -9 -9 -9 -9 -9 -9 -9 -9 -9 -9 -9 -10 -10 -10 -10 -10 -10 -11 -11 -11 -11 -11
-6 -7 -7 -8 -8 -8 -8 -8 -8 -8 -8 -8 -7 -7 -7 -7 -8 -8 -7 -8 -8 -8 -8 -8 -8 -9 -9 -9 -9 -9 -9 -9 -9 -9 -10 -9 -9 -9 -9 -10 -10 -10 -10 -10 -11 -11 -11 -11 -11
-7 -7 -7 -8 -8 -8 -8 -8 -8 -9 -8 -8 -7 -7 -7 -7 -8 -8 -7 -7 -8 -8 -8 -8 -8 -9 -9 -9 -9 -9 -9 -9 -9 -9 -9 -9 -10 -10 -10 -9 -10 -10 -10 -11 -11 -11 -11 -11 -11
-7 -7 -7 -8 -8 -8 -8 -9 -9 -9 -8 -8 -7 -7 -6 -7 -7 -8 -7 -7 -7 -7 -8 -8 -8 -9 -9 -9 -9 -9 -9 -9 -9 -9 -9 -9 -9 -10 -10 -10 -10 -10 -10 -10 -10 -11 -11 -11 -11
-6 -6 -7 -8 -8 -8 -7 -7 -8 -9 -8 -8 -7 -7 -6 -7 -7 -7 -7 -7 -7 -8 -8 -8 -8 -8 -9 -9 -9 -9 -9 -9 -9 -9 -9 -9 -9 -10 -10 -10 -10 -10 -10 -10 -10 -10 -10 -10 -10
-6 -6 -7 -8 -8 -8 -7 -6 -8 -8 -7 -7 -6 -6 -6 -7 -6 -7 -7 -7 -7 -8 -8 -8 -8 -9 -9 -9 -9 -9 -9 -9 -9 -9 -9 -9 -9 -10 -10 -10 -10 -10 -10 -10 -10 -10 -10 -10 -10
-6 -6 -7 -8 -8 -8 -7 -7 -7 -7 -7 -7 -7 -6 -6 -7 -6 -7 -6 -7 -7 -7 -8 -8 -8 -8 -9 -9 -9 -9 -9 -9 -9 -9 -9 -9 -9 -10 -10 -10 -10 -10 -10 -10 -10 -10 -10 -10 -10
-6 -6 -7 -8 -8 -8 -7 -6 -6 -6 -6 -6 -7 -7 -7 -7 -7 -6 -6 -6 -7 -8 -8 -8 -8 -8 -8 -9 -9 -9 -9 -9 -9 -9 -9 -9 -9 -9 -10 -10 -10 -10 -10 -10 -10 -10 -10 -10 -10
-7 -7 -7 -7 -8 -8 -7 -6 -6 -5 -6 -6 -7 -6 -6 -6 -6 -7 -7 -7 -7 -8 -8 -7 -8 -8 -8 -8 -9 -9 -9 -9 -9 -9 -9 -9 -9 -9 -9 -10 -10 -10 -10 -10 -10 -10 -10 -10 -10
-7 -7 -7 -8 -7 -7 -7 -6 -6 -6 -6 -7 -7 -6 -6 -6 -6 -6 -7 -6 -6 -7 -7 -7 -7 -8 -8 -8 -9 -9 -9 -9 -9 -9 -9 -9 -9 -9 -9 -9 -10 -10 -10 -10 -10 -10 -10 -10 -10
-7 -7 -7 -7 -7 -6 -6 -6 -6 -6 -6 -7 -8 -7 -6 -6 -6 -6 -6 -6 -6 -6 -7 -7 -7 -8 -8 -8 -9 -9 -9 -9 -9 -9 -9 -9 -9 -9 -9 -9 -10 -10 -10 -10 -10 -10 -10 -10 -10
-7 -7 -7 -7 -7 -7 -6 -6 -6 -7 -7 -7 -7 -8 -7 -6 -6 -7 -6 -6 -6 -6 -6 -7 -7 -8 -8 -8 -9 -9 -9 -9 -9 -9 -9 -9 -9 -9 -9 -9 -9 -10 -10 -10 -10 -10 -10 -10 -10
-8 -7 -7 -7 -7 -7 -7 -6 -7 -8 -7 -7 -7 -7 -7 -7 -7 -7 -7 -7 -6 -6 -6 -7 -7 -7 -8 -8 -9 -9 -9 -9 -9 -9 -9 -9 -8 -9 -9 -9 -9 -9 -9 -9 -10 -10 -10 -10 -10
-8 -7 -7 -7 -7 -7 -8 -7 -7 -8 -8 -7 -7 -7 -7 -7 -7 -8 -7 -6 -6 -6 -6 -7 -7 -7 -8 -8 -8 -8 -8 -8 -8 -9 -9 -9 -8 -8 -9 -9 -9 -9 -9 -9 -9 -10 -9 -9 -9
-8 -8 -8 -7 -8 -8 -8 -7 -7 -8 -7 -7 -7 -7 -6 -7 -7 -7 -7 -7 -6 -6 -6 -7 -7 -7 -7 -8 -8 -8 -8 -8 -8 -8 -9 -9 -8 -8 -8 -9 -9 -9 -9 -9 -10 -10 -10 -10 -9
-9 -9 -8 -8 -9 -9 -7 -7 -7 -7 -7 -7 -7 -6 -6 -7 -7 -7 -7 -7 -7 -6 -7 -7 -7 -7 -7 -7 -8 -8 -8 -8 -8 -8 -8 -8 -9 -8 -8 -8 -8 -9 -9 -10 -10 -10 -9 -9 -10
-9 -9 -8 -8 -9 -9 -8 -7 -7 -6 -5 -6 -6 -6 -6 -7 -7 -7 -7 -7 -7 -7 -7 -7 -7 -7 -7 -7 -7 -7 -8 -8 -8 -8 -8 -8 -8 -8 -8 -8 -8 -8 -9 -9 -10 -10 -10 -9 -10
-9 -9 -9 -8 -10 -10 -9 -8 -8 -7 -6 -5 -5 -5 -6 -7 -7 -8 -7 -7 -7 -6 -7 -7 -7 -7 -7 -7 -7 -7 -7 -7 -7 -7 -7 -8 -8 -9 -8 -8 -8 -8 -8 -9 -9 -9 -10 -9 -9
-9 -9 -9 -9 -10 -9 -10 -8 -8 -7 -6 -5 -5 -7 -7 -7 -7 -8 -8 -7 -7 -7 -6 -8 -7 -7 -7 -7 -7 -7 -7 -7 -7 -7 -7 -7 -7 -8 -9 -9 -8 -8 -8 -8 -9 -9 -9 -10 -10
-9 -10 -10 -10 -10 -10 -10 -10 -6 -7 -6 -6 -6 -7 -8 -8 -7 -8 -8 -8 -8 -7 -7 -8 -7 -7 -7 -7 -7 -7 -8 -8 -8 -7 -7 -7 -7 -7 -8 -9 -8 -8 -8 -9 -9 -9 -10 -10 -10
-11 -11 -12 -12 -11 -11 -9 -10 -6 -7 -6 -6 -6 -7 -8 -8 -8 -8 -8 -8 -7 -7 -7 -8 -7 -7 -7 -7 -7 -8 -8 -8 -8 -8 -7 -7 -7 -7 -8 -8 -9 -9 -9 -9 -9 -9 -10 -10 -10
-12 -12 -12 -12 -11 -10 -9 -10 -7 -7 -7 -7 -7 -8 -9 -9 -9 -8 -8 -8 -8 -8 -8 -8 -8 -7 -7 -7 -7 -8 -8 -8 -8 -8 -8 -8 -7 -8 -8 -8 -9 -9 -10 -10 -10 -10 -10 -10 -10
-11 -11 -11 -11 -11 -10 -10 -9 -7 -8 -8 -8 -8 -8 -8 -8 -8 -8 -8 -8 -8 -8 -9 -8 -8 -8 -8 -7 -7 -8 -8 -8 -8 -8 -8 -8 -8 -8 -8 -9 -9 -9 -10 -10 -10 -11 -11 -10 -10
-12 -13 -12 -12 -12 -12 -11 -9 -9 -8 -8 -8 -8 -9 -8 -8 -8 -8 -8 -8 -8 -8 -9 -9 -8 -8 -8 -8 -8 -8 -8 -8 -8 -8 -8 -8 -8 -8 -8 -9 -9 -9 -10 -10 -11 -11 -11 -11 -11
-14 -13 -14 -14 -14 -13 -11 -10 -10 -9 -8 -9 -9 -8 -9 -9 -8 -8 -8 -9 -9 -9 -9 -8 -8 -8 -8 -8 -9 -9 -9 -9 -9 -8 -8 -8 -8 -9 -9 -9 -9 -10 -10 -11 -11 -11 -11 -12 -12
-14 -14 -15 -15 -14 -13 -12 -12 -10 -10 -9 -9 -9 -9 -10 -10 -9 -8 -9 -9 -9 -9 -9 -9 -9 -9 -9 -9 -9 -9 -9 -9 -9 -9 -9 -9 -9 -9 -9 -9 -10 -11 -11 -11 -11 -11 -11 -12 -12
-16 -16 -15 -16 -14 -14 -13 -12 -10 -10 -10 -10 -10 -10 -11 -11 -10 -10 -10 -9 -9 -9 -10 -10 -10 -10 -10 -9 -9 -9 -9 -9 -9 -9 -9 -9 -9 -10 -10 -10 -10 -10 -11 -11 -12 -12 -12 -12 -13
Height
5917 5918 5919 5920 5921 5920 5917 5917 5917 5918 5919 5922 5918 5915 5913 5911 5910 5910 5906 5905 5903 5897 5895 5894 5892 5889 5886 5884 5882 5881 5881 5880 5878 5876 5875 5874 5873 5872 5871 5870 5869 5869 5869 5869 5869 5870 5870 5870 5870
5915 5917 5918 5918 5919 5918 5916 5915 5914 5916 5917 5920 5921 5919 5917 5914 5911 5909 5907 5905 5901 5897 5896 5896 5893 5891 5888 5886 5883 5882 5882 5881 5880 5879 5877 5876 5875 5874 5872 5872 5871 5871 5870 5870 5870 5871 5872 5873 5873
5913 5915 5917 5917 5916 5914 5912 5914 5913 5914 5913 5915 5917 5920 5918 5914 5911 5910 5908 5904 5900 5899 5898 5897 5895 5892 5890 5887 5884 5884 5883 5882 5882 5881 5880 5878 5877 5876 5875 5873 5873 5872 5872 5871 5872 5872 5873 5874 5874
5910 5913 5915 5915 5913 5913 5912 5913 5915 5912 5910 5912 5913 5915 5916 5914 5910 5908 5905 5904 5902 5900 5899 5898 5896 5895 5892 5889 5886 5885 5884 5883 5882 5882 5881 5881 5879 5878 5877 5877 5876 5874 5873 5873 5873 5873 5874 5875 5876
5908 5910 5912 5911 5911 5910 5910 5910 5912 5913 5911 5911 5913 5914 5916 5912 5908 5906 5905 5905 5902 5901 5900 5899 5898 5896 5893 5890 5888 5886 5885 5884 5883 5883 5882 5882 5881 5880 5879 5878 5877 5877 5876 5876 5876 5876 5876 5876 5877
5904 5907 5909 5909 5910 5909 5909 5910 5911 5909 5908 5907 5910 5912 5914 5911 5908 5906 5905 5904 5903 5902 5901 5900 5899 5897 5895 5891 5889 5887 5886 5884 5884 5883 5883 5883 5883 5882 5880 5879 5879 5879 5878 5878 5877 5877 5878 5878 5878
5899 5903 5907 5908 5906 5907 5910 5907 5908 5906 5907 5907 5908 5911 5911 5910 5908 5906 5904 5904 5903 5902 5900 5899 5898 5897 5895 5893 5889 5888 5886 5884 5884 5883 5883 5883 5884 5883 5882 5881 5880 5880 5881 5880 5879 5879 5879 5879 5880
5894 5899 5903 5905 5903 5906 5906 5905 5906 5904 5904 5904 5908 5910 5908 5908 5908 5906 5904 5903 5903 5902 5901 5900 5898 5897 5895 5893 5891 5888 5886 5884 5884 5883 5882 5882 5883 5883 5883 5882 5881 5881 5880 5881 5882 5881 5880 5880 5880
5888 5893 5899 5900 5896 5899 5901 5901 5902 5901 5898 5904 5905 5907 5907 5907 5907 5906 5905 5904 5903 5902 5902 5900 5899 5896 5895 5893 5891 5889 5886 5884 5883 5882 5882 5882 5882 5882 5883 5882 5882 5882 5882 5881 5882 5882 5881 5881 5881
5881 5889 5893 5892 5893 5896 5896 5897 5897 5897 5900 5900 5899 5902 5906 5906 5907 5906 5905 5904 5903 5902 5901 5900 5898 5897 5895 5893 5891 5889 5887 5884 5883 5882 5881 5882 5882 5882 5881 5882 5882 5882 5882 5882 5882 5883 5882 5882 5881
5877 5885 5888 5885 5886 5890 5892 5895 5894 5893 5897 5899 5900 5900 5904 5906 5906 5904 5903 5901 5901 5901 5900 5899 5898 5896 5894 5892 5890 5888 5887 5885 5883 5882 5881 5881 5881 5881 5881 5881 5881 5881 5882 5882 5882 5882 5882 5882 5882
5869 5878 5881 5880 5880 5882 5887 5889 5891 5892 5889 5895 5896 5896 5899 5901 5902 5902 5900 5898 5896 5896 5896 5898 5897 5895 5892 5890 5889 5887 5886 5885 5883 5882 5881 5880 5880 5880 5880 5880 5880 5879 5880 5879 5880 5880 5880 5880 5879
5860 5868 5873 5874 5871 5877 5880 5883 5886 5889 5889 5887 5890 5892 5894 5896 5898 5899 5900 5901 5899 5898 5896 5895 5893 5894 5891 5889 5887 5886 5884 5884 5883 5882 5881 5879 5879 5879 5878 5877 5878 5877 5877 5877 5877 5877 5877 5877 5876
5851 5857 5863 5867 5864 5870 5874 5878 5880 5885 5886 5887 5884 5885 5888 5891 5894 5896 5897 5900 5900 5898 5895 5893 5891 5889 5889 5887 5886 5884 5883 5882 5881 5881 5880 5878 5877 5877 5876 5876 5875 5876 5875 5875 5875 5875 5875 5876 5875
5843 5850 5855 5860 5859 5861 5867 5871 5876 5882 5881 5881 5882 5882 5878 5885 5887 5889 5890 5894 5896 5895 5893 5890 5888 5886 5885 5884 5884 5883 5881 5880 5878 5878 5877 5877 5876 5874 5874 5873 5873 5872 5872 5872 5872 5872 5872 5872 5872
5835 5840 5847 5853 5854 5855 5860 5865 5875 5876 5874 5875 5877 5879 5879 5878 5880 5882 5883 5881 5888 5889 5887 5887 5885 5884 5882 5881 5880 5879 5878 5877 5875 5874 5873 5873 5873 5872 5870 5869 5869 5869 5868 5868 5868 5867 5867 5867 5868
5826 5832 5838 5842 5846 5849 5852 5855 5865 5867 5865 5867 5871 5874 5876 5877 5878 5879 5878 5878 5880 5883 5885 5885 5882 5881 5879 5878 5876 5875 5875 5874 5872 5870 5870 5868 5867 5867 5867 5864 5863 5863 5864 5864 5864 5863 5863 5863 5863
5819 5823 5827 5832 5840 5841 5843 5844 5854 5857 5856 5858 5863 5867 5870 5872 5874 5874 5875 5875 5876 5880 5881 5881 5879 5877 5875 5874 5875 5873 5871 5871 5869 5867 5864 5863 5861 5861 5862 5861 5860 5859 5859 5859 5858 5858 5858 5858 5857
5811 5814 5818 5825 5827 5825 5832 5830 5839 5845 5844 5848 5855 5859 5862 5865 5866 5866 5869 5870 5870 5874 5875 5876 5875 5873 5872 5870 5869 5869 5868 5866 5864 5862 5861 5858 5854 5854 5854 5855 5854 5854 5855 5853 5853 5852 5852 5852 5851
5798 5803 5809 5816 5819 5816 5821 5822 5823 5836 5839 5839 5845 5849 5853 5856 5857 5858 5861 5863 5864 5867 5869 5870 5871 5870 5869 5867 5865 5863 5862 5861 5859 5857 5855 5854 5851 5847 5847 5847 5847 5848 5849 5848 5846 5846 5846 5847 5847
5786 5793 5803 5806 5809 5808 5808 5811 5816 5825 5832 5832 5835 5839 5844 5847 5850 5852 5853 5855 5857 5860 5862 5863 5864 5863 5863 5862 5861 5859 5855 5853 5851 5849 5849 5848 5846 5841 5839 5839 5839 5839 5841 5841 5840 5838 5839 5840 5840
5775 5790 5789 5793 5796 5800 5795 5798 5804 5814 5823 5826 5829 5832 5833 5837 5842 5845 5846 5846 5851 5853 5853 5853 5855 5856 5857 5856 5855 5853 5851 5847 5843 5842 5840 5839 5838 5836 5832 5832 5831 5831 5833 5831 5831 5832 5831 5830 5832
5769 5775 5775 5780 5784 5784 5789 5786 5804 5803 5809 5818 5821 5824 5825 5830 5833 5835 5837 5838 5842 5846 5846 5844 5846 5848 5848 5848 5846 5844 5842 5841 5840 5837 5834 5831 5829 5829 5826 5823 5821 5822 5822 5822 5821 5822 5822 5823 5823
5761 5757 5759 5762 5766 5761 5782 5779 5788 5794 5799 5808 5812 5815 5818 5821 5824 5825 5828 5831 5835 5837 5837 5836 5837 5839 5839 5838 5837 5836 5835 5835 5834 5832 5830 5826 5822 5821 5819 5816 5814 5814 5814 5812 5812 5814 5814 5814 5814
5736 5740 5743 5744 5743 5750 5772 5767 5773 5782 5790 5798 5803 5807 5810 5811 5812 5815 5820 5824 5826 5827 5828 5827 5828 5830 5830 5829 5828 5828 5828 5827 5826 5824 5822 5819 5816 5812 5810 5808 5806 5805 5804 5804 5804 5805 5804 5804 5805
5729 5730 5728 5726 5732 5744 5750 5747 5763 5777 5782 5787 5794 5795 5797 5800 5804 5809 5813 5815 5817 5818 5819 5819 5821 5822 5822 5821 5819 5818 5818 5818 5818 5816 5813 5811 5808 5804 5801 5799 5797 5797 5796 5795 5795 5795 5795 5795 5795
5715 5705 5724 5721 5723 5725 5732 5746 5755 5767 5771 5780 5782 5785 5789 5791 5794 5800 5804 5806 5808 5810 5812 5812 5812 5814 5814 5814 5813 5812 5810 5810 5809 5807 5804 5802 5798 5796 5794 5791 5789 5788 5787 5786 5786 5785 5784 5784 5784
5691 5711 5703 5696 5702 5707 5717 5731 5738 5757 5766 5767 5769 5772 5778 5782 5785 5789 5792 5796 5799 5801 5802 5802 5802 5805 5805 5805 5804 5804 5803 5801 5799 5797 5795 5793 5790 5788 5785 5782 5780 5779 5778 5776 5775 5774 5772 5771 5771
5679 5679 5683 5690 5693 5697 5707 5710 5735 5746 5753 5757 5760 5764 5764 5771 5776 5779 5781 5783 5788 5790 5791 5793 5793 5794 5795 5796 5795 5794 5793 5792 5790 5788 5786 5783 5780 5777 5774 5772 5769 5768 5767 5765 5764 5762 5761 5760 5758
5662 5666 5676 5672 5680 5681 5689 5693 5718 5732 5741 5745 5749 5751 5755 5760 5764 5769 5772 5775 5778 5781 5782 5782 5783 5784 5785 5785 5785 5785 5783 5781 5780 5778 5775 5773 5770 5767 5765 5762 5760 5758 5756 5754 5753 5752 5751 5749 5748
Wind_Speed
13 16 22 18 13 7 8 5 5 9 13 11 12 12 12 13 12 13 13 10 10 15 18 18 19 21 19 18 18 15 11 13 13 12 11 10 10 11 11 13 13 12 10 10 10 10 12 12 13
15 17 22 18 9 10 13 11 7 12 15 14 16 12 6 8 9 12 12 10 12 14 15 16 18 19 19 17 18 15 12 12 12 12 11 11 10 10 11 12 13 13 11 10 10 10 10 11 10
17 17 19 19 13 14 14 9 9 11 23 27 23 12 11 8 12 11 11 13 13 13 12 14 15 17 17 17 16 15 13 10 12 12 11 10 10 8 10 11 12 12 12 11 10 10 9 8 8
19 18 21 15 12 9 7 5 12 21 27 28 24 19 15 13 12 14 15 14 12 13 12 12 14 15 15 15 15 14 12 11 10 11 11 9 8 9 10 10 11 11 11 11 11 10 9 7 7
22 20 22 19 16 13 12 9 15 18 24 27 18 18 13 16 19 16 16 15 14 12 12 11 13 15 14 13 13 12 12 11 9 9 10 9 9 10 10 10 9 9 10 10 10 11 11 10 8
26 22 21 21 17 18 12 8 14 23 28 29 22 18 14 15 18 15 16 15 15 12 10 11 12 16 14 14 12 11 10 10 9 9 9 10 9 9 9 9 10 9 8 8 10 10 10 10 9
29 25 22 19 22 21 19 9 20 27 29 31 22 17 14 14 16 17 17 13 14 12 7 8 10 12 14 15 13 9 10 9 7 7 7 8 9 8 8 8 9 9 8 7 6 8 9 8 8
32 27 24 25 23 23 21 18 17 21 26 24 18 15 12 14 14 16 17 13 11 12 7 8 9 11 14 15 14 12 8 8 7 5 4 4 6 7 7 6 7 6 7 7 7 8 9 9 8
35 30 26 26 31 27 24 22 17 23 22 17 17 12 10 12 11 13 14 13 12 14 9 8 9 12 13 16 15 13 12 7 7 4 2 3 3 4 5 4 6 5 5 6 6 7 8 9 9
38 32 29 34 36 33 28 26 24 20 17 17 20 15 10 8 10 12 12 12 9 13 10 10 10 13 16 17 16 13 13 10 7 5 2 1 1 1 2 2 2 4 4 4 5 6 7 8 10
39 32 33 38 39 39 36 29 24 22 13 17 19 17 14 7 5 11 12 14 12 8 10 10 10 11 15 17 15 14 11 13 9 7 4 1 2 3 1 2 2 4 1 3 3 1 3 5 6
42 37 36 41 43 43 38 32 25 21 28 21 21 19 12 8 8 7 12 17 17 12 10 14 12 13 12 16 14 14 12 13 12 9 7 5 5 7 5 5 5 7 6 7 3 3 4 5 4
46 40 40 43 47 43 41 35 31 24 26 26 24 18 16 13 11 10 10 10 12 12 11 15 18 15 13 14 14 15 13 12 14 10 9 9 8 10 9 8 10 9 9 9 6 5 5 7 8
51 48 45 45 50 45 42 39 32 26 26 29 29 28 21 16 15 14 15 12 10 11 10 13 18 18 14 15 14 15 16 13 12 14 10 12 12 12 14 12 14 13 14 12 10 9 9 9 9
52 49 48 46 50 48 43 39 35 30 33 32 32 33 35 23 20 18 18 15 11 12 10 12 14 18 17 16 16 16 16 16 14 14 15 12 16 16 17 17 18 18 18 16 16 15 13 13 14
51 51 49 47 49 49 45 37 30 34 38 38 37 34 35 32 26 21 20 23 16 12 12 12 13 13 15 14 17 17 17 16 15 14 17 17 16 21 21 20 21 22 22 21 21 20 18 17 19
52 50 48 47 47 47 45 43 37 38 42 42 39 36 32 30 28 23 24 24 20 15 10 10 12 14 13 11 12 14 15 19 17 17 17 20 20 21 25 25 24 26 26 24 25 25 22 21 21
55 53 51 49 45 45 45 47 41 39 44 44 41 38 35 33 31 28 25 25 22 17 12 8 11 13 13 12 9 12 16 17 19 18 21 20 23 23 24 29 28 27 30 29 28 29 28 28 27
54 54 53 50 48 50 51 55 49 46 47 46 42 39 36 34 32 33 28 27 25 20 17 11 12 10 13 15 15 13 14 18 19 20 20 22 25 26 25 27 32 30 30 33 33 32 32 29 31
57 56 55 50 48 50 49 53 56 46 44 47 43 40 39 38 35 34 31 30 28 23 20 20 17 14 12 13 15 18 18 18 18 20 23 23 23 30 30 29 30 34 32 33 35 36 36 35 34
62 59 54 52 46 47 51 53 53 49 44 44 43 41 37 38 34 33 34 30 29 25 24 24 24 20 18 18 16 17 22 23 23 23 23 25 24 26 31 32 33 32 36 36 37 39 37 36 35
65 57 58 54 51 50 51 56 53 49 44 42 38 36 41 38 30 32 34 36 30 26 26 27 26 24 24 23 23 21 21 23 27 29 25 25 24 24 29 32 34 34 35 40 40 41 43 41 40
63 58 59 56 54 55 51 58 49 51 48 40 38 30 31 31 33 34 34 36 32 28 27 29 28 28 29 27 27 27 25 26 25 29 29 26 26 27 30 33 36 35 35 41 44 43 44 42 43
60 62 58 57 58 63 56 55 57 52 49 42 40 34 30 28 33 35 36 34 33 28 28 32 32 31 31 30 29 30 29 28 29 30 29 29 28 28 29 34 36 35 37 42 44 44 43 44 46
64 65 63 65 67 69 60 60 64 55 48 43 39 33 32 35 37 37 33 32 31 29 29 34 33 34 33 32 33 34 32 34 34 34 31 31 29 29 30 34 36 38 39 41 43 43 44 45 46
71 67 69 71 72 70 65 71 62 53 47 43 39 41 40 40 41 37 33 32 31 28 29 34 35 33 31 34 36 37 37 37 37 38 37 34 34 30 31 33 36 38 41 40 43 43 45 44 46
70 73 70 69 71 69 70 65 61 54 52 45 46 41 42 42 42 38 35 38 37 30 30 35 36 32 33 35 36 39 40 40 40 40 39 39 37 36 34 33 35 37 40 43 43 44 44 45 47
69 65 67 70 73 72 81 78 69 56 50 50 50 47 44 39 39 39 37 33 32 33 34 34 36 34 36 36 38 39 41 42 42 42 42 43 42 41 36 35 36 37 40 43 45 46 46 47 47
69 69 65 67 69 72 73 75 65 61 55 52 51 47 39 36 40 42 41 41 39 33 31 35 36 38 37 37 38 40 43 43 43 44 43 44 44 46 43 38 39 39 41 45 46 46 47 46 47
71 66 65 67 69 73 72 79 68 62 59 55 51 49 43 34 36 37 39 40 37 33 33 31 36 37 37 38 41 42 43 43 43 43 44 46 44 47 46 42 41 43 43 45 48 49 48 47 45
Wind_Direction
168 155 157 153 164 169 205 207 279 304 291 331 338 325 326 352 350 356 355 356 357 33 39 36 35 32 41 49 55 46 40 42 42 49 51 65 68 69 71 76 79 74 80 97 104 111 113 113 115
184 162 165 175 180 203 224 248 281 300 295 335 340 326 317 343 353 5 354 357 13 26 38 35 36 34 34 45 57 53 44 42 42 47 53 58 62 69 80 77 78 80 81 88 104 111 112 116 117
193 176 175 182 161 183 226 243 282 313 316 316 327 333 351 11 5 3 359 11 16 16 29 31 35 33 30 36 49 55 52 43 39 43 44 54 59 66 76 81 81 83 84 91 97 103 108 109 110
203 187 167 164 184 197 214 281 297 303 312 318 321 332 355 358 7 5 14 19 9 15 13 22 24 28 24 26 40 51 53 56 43 41 47 45 55 59 66 71 78 84 85 86 91 93 97 99 96
209 198 179 183 192 233 245 224 264 287 297 304 316 329 18 9 8 3 8 20 16 8 5 9 18 20 25 20 25 37 48 52 53 41 41 49 49 57 60 66 73 75 83 85 86 90 95 101 104
213 207 191 193 203 219 216 258 286 285 298 303 317 325 353 5 6 357 2 22 20 11 360 0 20 17 20 20 17 18 36 45 48 46 31 29 40 51 63 68 71 76 86 94 96 95 94 99 104
218 211 196 187 203 224 231 209 252 275 284 290 303 322 337 5 2 355 357 16 18 14 4 351 14 23 19 18 14 12 12 26 47 55 51 27 28 43 62 72 73 77 78 84 98 105 100 96 96
219 213 205 190 220 230 238 244 238 272 277 286 302 318 330 2 360 357 353 0 11 7 360 350 354 5 7 11 16 11 2 6 23 51 64 50 26 26 52 73 81 79 88 83 78 87 88 88 91
219 212 210 201 216 219 231 247 245 256 272 277 291 307 340 349 351 357 354 351 358 2 4 349 338 346 1 2 8 10 9 353 353 19 40 70 24 25 38 64 85 83 82 85 84 80 82 77 74
217 212 206 219 219 224 237 242 256 261 267 280 288 302 330 338 331 336 341 347 353 358 1 356 346 340 346 348 355 0 3 354 330 328 333 31 358 333 46 41 107 103 104 71 56 64 77 88 86
225 215 209 221 224 224 240 246 250 255 250 259 277 290 295 287 305 314 331 337 344 331 356 346 353 352 357 354 349 351 353 355 333 313 304 270 267 260 226 236 209 222 167 296 305 37 91 102 106
223 220 216 226 226 230 237 246 249 260 265 269 279 281 281 267 274 301 327 332 334 328 325 322 329 336 352 353 357 350 354 349 343 319 295 271 245 254 230 237 234 247 254 271 285 244 180 147 145
222 219 219 223 235 233 237 245 248 252 267 280 273 275 281 269 271 275 285 306 310 321 308 305 311 316 331 338 351 2 351 347 341 328 297 268 252 249 241 237 238 238 245 254 252 245 223 196 195
228 222 218 221 237 236 238 242 247 247 259 269 275 276 275 277 268 262 265 280 285 307 316 317 309 316 323 322 328 341 348 340 333 329 299 268 258 245 250 238 243 238 240 240 238 238 237 220 231
226 226 227 225 232 239 239 240 244 252 259 259 264 271 281 282 278 271 273 275 285 292 316 326 323 326 324 312 317 324 327 334 325 322 312 278 256 251 244 246 244 241 237 236 234 233 233 230 226
225 226 226 227 233 240 244 244 246 245 251 254 255 258 267 278 283 277 276 283 288 299 319 330 323 332 330 316 308 310 313 315 319 313 309 296 267 250 251 250 247 244 240 235 236 234 229 231 236
229 227 227 227 231 236 241 241 237 240 245 248 251 252 259 268 272 269 265 270 280 288 306 307 316 330 340 340 315 307 308 309 313 315 301 296 285 265 249 247 249 249 246 238 239 240 237 233 235
235 232 229 228 233 236 235 242 237 239 243 245 246 248 252 260 263 260 254 258 263 266 273 296 310 328 342 346 347 315 311 303 303 305 302 293 286 278 265 251 246 246 248 251 245 243 240 239 237
238 237 235 232 230 234 231 236 232 231 237 241 243 247 250 256 259 255 249 250 254 257 255 274 292 314 325 331 335 333 318 309 305 296 291 290 284 277 273 266 253 247 244 244 247 248 251 247 248
235 238 238 233 235 238 235 236 241 231 238 243 247 247 248 251 251 252 247 244 250 253 253 262 273 286 300 307 325 326 328 327 316 301 293 287 284 281 277 268 259 254 250 246 244 243 246 251 251
234 237 239 242 238 237 239 237 241 242 237 243 248 251 249 247 249 250 252 248 249 252 258 255 266 277 288 295 305 316 326 334 332 321 306 288 280 278 279 275 270 254 253 254 247 246 251 255 253
236 238 240 240 241 242 240 242 238 242 239 243 252 245 247 246 248 238 243 250 248 250 257 257 263 274 281 289 296 307 321 331 331 332 318 303 283 278 272 271 269 266 254 254 254 249 250 252 256
234 235 241 242 242 241 235 246 240 245 244 241 246 244 243 246 247 242 238 243 247 250 255 260 268 273 280 287 293 303 316 323 323 324 324 315 301 282 275 271 271 269 262 254 255 255 255 255 258
231 233 237 239 239 242 237 243 243 242 248 242 243 243 244 247 248 244 241 241 245 248 253 261 268 274 278 287 293 296 304 309 313 317 318 320 315 294 282 275 274 271 262 258 257 259 260 259 262
226 231 234 238 238 241 238 240 245 244 248 252 253 251 247 244 239 240 241 248 245 247 250 259 266 271 277 284 287 289 295 300 306 312 315 320 320 310 289 280 275 268 264 262 261 260 261 261 264
232 232 235 237 240 243 243 242 239 245 248 252 254 253 245 241 243 241 237 245 244 242 249 259 263 268 275 279 282 288 292 294 298 303 311 318 322 315 299 288 279 272 267 264 263 262 262 262 264
230 232 238 240 243 242 242 241 245 243 244 249 252 252 250 245 243 242 241 243 243 247 247 257 264 270 271 273 277 282 287 290 293 297 305 310 317 317 306 291 281 280 274 270 268 264 263 264 264
232 235 234 235 238 241 244 242 243 243 246 249 252 256 253 254 248 240 242 242 239 244 249 257 264 267 268 272 276 280 284 287 290 294 298 304 306 315 305 293 284 278 276 272 267 268 267 265 267
230 228 231 236 241 244 247 246 243 242 246 249 251 257 264 258 252 247 244 246 247 251 253 264 266 264 265 268 274 278 281 284 289 290 294 301 303 310 308 294 284 279 276 274 270 267 267 266 266
231 235 234 233 235 241 244 241 239 240 240 246 250 256 257 246 257 256 259 261 262 259 275 256 258 263 268 272 273 274 277 282 284 285 291 296 297 306 304 296 289 279 276 275 275 270 267 268 270